BCS082 LPPR-EKCH

Flight info

Callsign BCS082
Flight time N/A
Altitude 24000
Route TURON P600 ASDEB/N0473F380 DCT LOTEE DCT AZFIC/N0461F340 UN741 ERIGA DCT GODIX DCT PODEM/N0467F400 UN873 BAZOS DCT BELDI DCT VEKIN DCT ADUTO/N0462F390 DCT VICOT DCT DOSUR P729 TUDLO
Aircraft A333/H-SDE3GHIJ2J3J5M1RVWXY/LB2D1

Departure

Time 2026-05-04 16:08
Airport Francisco de Sá Carneiro Airport (LPPR)

Arrival

Time N/A
Airport Copenhagen Kastrup Airport (EKCH)
Time Latitude Longitude Altitude Speed Heading
2026-05-04 15:44 41.23684 -8.68482 219 ft 0 kts 259°
2026-05-04 15:55 41.23687 -8.68460 219 ft 4 kts 259°
2026-05-04 15:55 41.23692 -8.68425 221 ft 4 kts 259°
2026-05-04 15:55 41.23697 -8.68393 220 ft 4 kts 265°
2026-05-04 15:55 41.23693 -8.68364 222 ft 4 kts 325°
2026-05-04 15:56 41.23669 -8.68354 222 ft 4 kts 351°
2026-05-04 15:56 41.23659 -8.68352 222 ft 0 kts 349°
2026-05-04 15:59 41.23660 -8.68352 222 ft 1 kts 349°
2026-05-04 15:59 41.23682 -8.68354 227 ft 4 kts
2026-05-04 16:00 41.23703 -8.68330 220 ft 4 kts 60°
2026-05-04 16:00 41.23708 -8.68307 226 ft 2 kts 75°
2026-05-04 16:00 41.23710 -8.68299 224 ft 2 kts 78°
2026-05-04 16:02 41.23711 -8.68286 224 ft 6 kts 82°
2026-05-04 16:02 41.23711 -8.68276 223 ft 8 kts 87°
2026-05-04 16:03 41.23710 -8.68257 222 ft 0 kts 98°
2026-05-04 16:04 41.23710 -8.68234 223 ft 4 kts 90°
2026-05-04 16:04 41.23713 -8.68177 225 ft 7 kts 85°
2026-05-04 16:05 41.23708 -8.68109 227 ft 7 kts 111°
2026-05-04 16:05 41.23659 -8.68069 229 ft 9 kts 165°
2026-05-04 16:05 41.23525 -8.68038 235 ft 11 kts 169°
2026-05-04 16:06 41.23444 -8.68006 236 ft 14 kts 157°
2026-05-04 16:06 41.23321 -8.67767 243 ft 9 kts 57°
2026-05-04 16:07 41.23386 -8.67754 243 ft 0 kts 350°
2026-05-04 16:07 41.25091 -8.68189 331 ft 168 kts 347°
2026-05-04 16:08 41.26233 -8.68461 1313 ft 162 kts 346°
2026-05-04 16:08 41.29854 -8.69553 3476 ft 206 kts 345°
2026-05-04 16:09 41.32648 -8.70219 5530 ft 205 kts 345°
2026-05-04 16:09 41.35503 -8.70942 7499 ft 212 kts 345°
2026-05-04 16:10 41.38507 -8.71138 9425 ft 224 kts
2026-05-04 16:11 41.43720 -8.70144 10978 ft 286 kts
2026-05-04 16:11 41.45435 -8.69775 11563 ft 295 kts